Time,TemperatureF,DewpointF,PressureIn,WindDirection,WindDirectionDegrees,WindSpeedMPH,WindSpeedGustMPH,Humidity,HourlyPrecipIn,Conditions,Clouds,dailyrainin,SolarRadiationWatts/m^2,SoftwareType,DateUTC
2013-07-13 00:01:00,78.0,60.0,-100.00,South,173,8.0,17.0,54,0.00,,,0.00,0.000000,,2013-07-13 05:01:00,
2013-07-13 00:11:00,78.0,60.0,-100.00,South,173,8.0,17.0,54,0.00,,,0.00,0.000000,,2013-07-13 05:11:00,
2013-07-13 00:20:00,78.0,61.0,-100.00,South,181,8.0,21.0,56,0.00,,,0.00,0.000000,,2013-07-13 05:20:00,
2013-07-13 00:42:00,78.0,61.0,-100.00,South,181,8.0,21.0,56,0.00,,,0.00,0.000000,,2013-07-13 05:42:00,
2013-07-13 00:52:00,78.0,61.0,-100.00,South,181,8.0,21.0,56,0.00,,,0.00,0.000000,,2013-07-13 05:52:00,
2013-07-13 01:02:00,78.0,61.0,-100.00,South,181,8.0,21.0,56,0.00,,,0.00,0.000000,,2013-07-13 06:02:00,
2013-07-13 01:11:00,78.0,61.0,-100.00,South,181,8.0,21.0,56,0.00,,,0.00,0.000000,,2013-07-13 06:11:00,
2013-07-13 01:20:00,72.0,62.0,-100.00,West,275,10.0,19.0,70,0.01,,,0.01,0.000000,,2013-07-13 06:20:00,
2013-07-13 01:43:00,72.0,62.0,-100.00,West,275,10.0,19.0,70,0.01,,,0.01,0.000000,,2013-07-13 06:43:00,
2013-07-13 01:52:00,72.0,62.0,-100.00,West,275,10.0,19.0,70,0.01,,,0.01,0.000000,,2013-07-13 06:52:00,
2013-07-13 02:02:00,72.0,62.0,-100.00,West,275,10.0,19.0,70,0.01,,,0.01,0.000000,,2013-07-13 07:02:00,
2013-07-13 02:11:00,72.0,62.0,-100.00,West,275,10.0,19.0,70,0.01,,,0.01,0.000000,,2013-07-13 07:11:00,
2013-07-13 02:20:00,69.0,67.0,-100.00,SSE,168,10.0,27.0,92,0.08,,,0.09,0.000000,,2013-07-13 07:20:00,
2013-07-13 02:44:00,69.0,67.0,-100.00,SSE,168,10.0,27.0,92,0.08,,,0.09,0.000000,,2013-07-13 07:44:00,
2013-07-13 02:53:00,69.0,67.0,-100.00,SSE,168,10.0,27.0,92,0.08,,,0.09,0.000000,,2013-07-13 07:53:00,
2013-07-13 03:02:00,69.0,67.0,-100.00,SSE,168,10.0,27.0,92,0.08,,,0.09,0.000000,,2013-07-13 08:02:00,
2013-07-13 03:11:00,69.0,67.0,-100.00,SSE,168,10.0,27.0,92,0.08,,,0.09,0.000000,,2013-07-13 08:11:00,
2013-07-13 03:20:00,69.0,68.0,-100.00,SSE,165,9.0,17.0,95,0.03,,,0.12,0.000000,,2013-07-13 08:20:00,
2013-07-13 03:43:00,69.0,68.0,-100.00,SSE,165,9.0,17.0,95,0.03,,,0.12,0.000000,,2013-07-13 08:43:00,
2013-07-13 03:52:00,69.0,68.0,-100.00,SSE,165,9.0,17.0,95,0.03,,,0.12,0.000000,,2013-07-13 08:52:00,
2013-07-13 04:02:00,69.0,68.0,-100.00,SSE,165,9.0,17.0,95,0.03,,,0.12,0.000000,,2013-07-13 09:02:00,
2013-07-13 04:11:00,69.0,68.0,-100.00,SSE,165,9.0,17.0,95,0.03,,,0.12,0.000000,,2013-07-13 09:11:00,
2013-07-13 04:20:00,70.0,68.0,-100.00,SE,133,4.0,20.0,94,0.01,,,0.13,0.000000,,2013-07-13 09:20:00,
2013-07-13 04:53:00,70.0,68.0,-100.00,SE,133,4.0,20.0,94,0.01,,,0.13,0.000000,,2013-07-13 09:53:00,
2013-07-13 05:01:00,70.0,68.0,-100.00,SE,133,4.0,20.0,94,0.01,,,0.13,0.000000,,2013-07-13 10:01:00,
2013-07-13 05:11:00,70.0,68.0,-100.00,SE,133,4.0,20.0,94,0.01,,,0.13,0.000000,,2013-07-13 10:11:00,
2013-07-13 05:20:00,69.0,65.0,-100.00,SSE,156,8.0,18.0,88,0.00,,,0.13,0.000000,,2013-07-13 10:20:00,
2013-07-13 05:43:00,69.0,65.0,-100.00,SSE,156,8.0,18.0,88,0.00,,,0.13,0.000000,,2013-07-13 10:43:00,
2013-07-13 05:52:00,69.0,65.0,-100.00,SSE,156,8.0,18.0,88,0.00,,,0.13,0.000000,,2013-07-13 10:52:00,
2013-07-13 06:02:00,69.0,65.0,-100.00,SSE,156,8.0,18.0,88,0.00,,,0.13,0.000000,,2013-07-13 11:02:00,
2013-07-13 06:11:00,69.0,65.0,-100.00,SSE,156,8.0,18.0,88,0.00,,,0.13,0.000000,,2013-07-13 11:11:00,
2013-07-13 06:20:00,70.0,67.0,-100.00,SSE,159,9.0,18.0,91,0.00,,,0.13,0.000000,,2013-07-13 11:20:00,
2013-07-13 06:43:00,70.0,67.0,-100.00,SSE,159,9.0,18.0,91,0.00,,,0.13,0.000000,,2013-07-13 11:43:00,
2013-07-13 06:52:00,70.0,67.0,-100.00,SSE,159,9.0,18.0,91,0.00,,,0.13,0.000000,,2013-07-13 11:52:00,
2013-07-13 07:02:00,70.0,67.0,-100.00,SSE,159,9.0,18.0,91,0.00,,,0.13,0.000000,,2013-07-13 12:02:00,
2013-07-13 07:12:00,70.0,67.0,-100.00,SSE,159,9.0,18.0,91,0.00,,,0.13,0.000000,,2013-07-13 12:12:00,
2013-07-13 07:20:00,72.0,68.0,-100.00,South,169,10.0,16.0,87,0.00,,,0.13,23.000000,,2013-07-13 12:20:00,
2013-07-13 07:43:00,72.0,68.0,-100.00,South,169,10.0,16.0,87,0.00,,,0.13,23.000000,,2013-07-13 12:43:00,
2013-07-13 07:52:00,72.0,68.0,-100.00,South,169,10.0,16.0,87,0.00,,,0.13,23.000000,,2013-07-13 12:52:00,
2013-07-13 08:01:00,72.0,68.0,-100.00,South,169,10.0,16.0,87,0.00,,,0.13,23.000000,,2013-07-13 13:01:00,
2013-07-13 08:12:00,72.0,68.0,-100.00,South,169,10.0,16.0,87,0.00,,,0.13,23.000000,,2013-07-13 13:12:00,
2013-07-13 08:20:00,72.0,68.0,-100.00,South,182,9.0,19.0,86,0.00,,,0.13,58.000000,,2013-07-13 13:20:00,
2013-07-13 08:43:00,72.0,68.0,-100.00,South,182,9.0,19.0,86,0.00,,,0.13,58.000000,,2013-07-13 13:43:00,
2013-07-13 08:53:00,72.0,68.0,-100.00,South,182,9.0,19.0,86,0.00,,,0.13,58.000000,,2013-07-13 13:53:00,
2013-07-13 09:02:00,72.0,68.0,-100.00,South,182,9.0,19.0,86,0.00,,,0.13,58.000000,,2013-07-13 14:02:00,
2013-07-13 09:11:00,72.0,68.0,-100.00,South,182,9.0,19.0,86,0.00,,,0.13,58.000000,,2013-07-13 14:11:00,
2013-07-13 09:20:00,75.0,68.0,-100.00,SSW,196,11.0,20.0,80,0.00,,,0.13,222.000000,,2013-07-13 14:20:00,
2013-07-13 09:44:00,75.0,68.0,-100.00,SSW,196,11.0,20.0,80,0.00,,,0.13,222.000000,,2013-07-13 14:44:00,
2013-07-13 09:53:00,75.0,68.0,-100.00,SSW,196,11.0,20.0,80,0.00,,,0.13,222.000000,,2013-07-13 14:53:00,
2013-07-13 10:02:00,75.0,68.0,-100.00,SSW,196,11.0,20.0,80,0.00,,,0.13,222.000000,,2013-07-13 15:02:00,
2013-07-13 10:12:00,75.0,68.0,-100.00,SSW,196,11.0,20.0,80,0.00,,,0.13,222.000000,,2013-07-13 15:12:00,
2013-07-13 10:20:00,76.0,69.0,-100.00,SSW,193,10.0,19.0,78,0.00,,,0.13,543.000000,,2013-07-13 15:20:00,
2013-07-13 10:53:00,76.0,69.0,-100.00,SSW,193,10.0,19.0,78,0.00,,,0.13,543.000000,,2013-07-13 15:53:00,
2013-07-13 11:02:00,76.0,69.0,-100.00,SSW,193,10.0,19.0,78,0.00,,,0.13,543.000000,,2013-07-13 16:02:00,
2013-07-13 11:11:00,76.0,69.0,-100.00,SSW,193,10.0,19.0,78,0.00,,,0.13,543.000000,,2013-07-13 16:11:00,
2013-07-13 11:20:00,76.0,67.0,-100.00,SSW,208,9.0,19.0,74,0.00,,,0.13,566.000000,,2013-07-13 16:20:00,
2013-07-13 11:43:00,76.0,67.0,-100.00,SSW,208,9.0,19.0,74,0.00,,,0.13,566.000000,,2013-07-13 16:43:00,
2013-07-13 11:53:00,76.0,67.0,-100.00,SSW,208,9.0,19.0,74,0.00,,,0.13,566.000000,,2013-07-13 16:53:00,
2013-07-13 12:01:00,76.0,67.0,-100.00,SSW,208,9.0,19.0,74,0.00,,,0.13,566.000000,,2013-07-13 17:01:00,
2013-07-13 12:12:00,76.0,67.0,-100.00,SSW,208,9.0,19.0,74,0.00,,,0.13,566.000000,,2013-07-13 17:12:00,
2013-07-13 12:20:00,74.0,66.0,-100.00,SW,225,6.0,14.0,77,0.00,,,0.13,418.000000,,2013-07-13 17:20:00,
2013-07-13 12:43:00,74.0,66.0,-100.00,SW,225,6.0,14.0,77,0.00,,,0.13,418.000000,,2013-07-13 17:43:00,
2013-07-13 12:52:00,74.0,66.0,-100.00,SW,225,6.0,14.0,77,0.00,,,0.13,418.000000,,2013-07-13 17:52:00,
2013-07-13 13:01:00,74.0,66.0,-100.00,SW,225,6.0,14.0,77,0.00,,,0.13,418.000000,,2013-07-13 18:01:00,
2013-07-13 13:11:00,74.0,66.0,-100.00,SW,225,6.0,14.0,77,0.00,,,0.13,418.000000,,2013-07-13 18:11:00,
2013-07-13 13:20:00,74.0,67.0,-100.00,South,188,5.0,11.0,79,0.00,,,0.13,172.000000,,2013-07-13 18:20:00,
2013-07-13 13:44:00,74.0,67.0,-100.00,South,188,5.0,11.0,79,0.00,,,0.13,172.000000,,2013-07-13 18:44:00,
2013-07-13 13:53:00,74.0,67.0,-100.00,South,188,5.0,11.0,79,0.00,,,0.13,172.000000,,2013-07-13 18:53:00,
2013-07-13 14:02:00,74.0,67.0,-100.00,South,188,5.0,11.0,79,0.00,,,0.13,172.000000,,2013-07-13 19:02:00,
2013-07-13 14:11:00,74.0,67.0,-100.00,South,188,5.0,11.0,79,0.00,,,0.13,172.000000,,2013-07-13 19:11:00,
2013-07-13 14:20:00,74.0,66.0,-100.00,ESE,111,6.0,12.0,75,0.00,,,0.13,325.000000,,2013-07-13 19:20:00,
2013-07-13 14:52:00,74.0,66.0,-100.00,ESE,111,6.0,12.0,75,0.00,,,0.13,325.000000,,2013-07-13 19:52:00,
2013-07-13 15:01:00,74.0,66.0,-100.00,ESE,111,6.0,12.0,75,0.00,,,0.13,325.000000,,2013-07-13 20:01:00,
2013-07-13 15:11:00,74.0,66.0,-100.00,ESE,111,6.0,12.0,75,0.00,,,0.13,325.000000,,2013-07-13 20:11:00,
2013-07-13 15:20:00,75.0,67.0,-100.00,South,188,3.0,13.0,76,0.00,,,0.13,262.000000,,2013-07-13 20:20:00,
2013-07-13 15:43:00,75.0,67.0,-100.00,South,188,3.0,13.0,76,0.00,,,0.13,262.000000,,2013-07-13 20:43:00,
2013-07-13 15:53:00,75.0,67.0,-100.00,South,188,3.0,13.0,76,0.00,,,0.13,262.000000,,2013-07-13 20:53:00,
2013-07-13 16:02:00,75.0,67.0,-100.00,South,188,3.0,13.0,76,0.00,,,0.13,262.000000,,2013-07-13 21:02:00,
2013-07-13 16:12:00,75.0,67.0,-100.00,South,188,3.0,13.0,76,0.00,,,0.13,262.000000,,2013-07-13 21:12:00,
2013-07-13 16:20:00,73.0,70.0,-100.00,NW,316,2.0,7.0,89,0.01,,,0.14,49.000000,,2013-07-13 21:20:00,
2013-07-13 16:53:00,73.0,70.0,-100.00,NW,316,2.0,7.0,89,0.01,,,0.14,49.000000,,2013-07-13 21:53:00,
2013-07-13 17:01:00,73.0,70.0,-100.00,NW,316,2.0,7.0,89,0.01,,,0.14,49.000000,,2013-07-13 22:01:00,
2013-07-13 17:12:00,73.0,70.0,-100.00,NW,316,2.0,7.0,89,0.01,,,0.14,49.000000,,2013-07-13 22:12:00,
2013-07-13 17:20:00,75.0,70.0,-100.00,NE,47,2.0,3.0,84,0.00,,,0.14,144.000000,,2013-07-13 22:20:00,
2013-07-13 17:43:00,75.0,70.0,-100.00,NE,47,2.0,3.0,84,0.00,,,0.14,144.000000,,2013-07-13 22:43:00,
2013-07-13 17:53:00,75.0,70.0,-100.00,NE,47,2.0,3.0,84,0.00,,,0.14,144.000000,,2013-07-13 22:53:00,
2013-07-13 18:01:00,75.0,70.0,-100.00,NE,47,2.0,3.0,84,0.00,,,0.14,144.000000,,2013-07-13 23:01:00,
2013-07-13 18:11:00,75.0,70.0,-100.00,NE,47,2.0,3.0,84,0.00,,,0.14,144.000000,,2013-07-13 23:11:00,
2013-07-13 18:20:00,73.0,68.0,-100.00,ESE,110,5.0,10.0,84,0.00,,,0.14,61.000000,,2013-07-13 23:20:00,
2013-07-13 18:42:00,73.0,68.0,-100.00,ESE,110,5.0,10.0,84,0.00,,,0.14,61.000000,,2013-07-13 23:42:00,
2013-07-13 18:53:00,73.0,68.0,-100.00,ESE,110,5.0,10.0,84,0.00,,,0.14,61.000000,,2013-07-13 23:53:00,
2013-07-13 19:01:00,73.0,68.0,-100.00,ESE,110,5.0,10.0,84,0.00,,,0.14,61.000000,,2013-07-14 00:01:00,
2013-07-13 19:12:00,73.0,68.0,-100.00,ESE,110,5.0,10.0,84,0.00,,,0.14,61.000000,,2013-07-14 00:12:00,
2013-07-13 19:20:00,74.0,67.0,-100.00,ESE,122,7.0,10.0,79,0.00,,,0.14,85.000000,,2013-07-14 00:20:00,
2013-07-13 19:53:00,74.0,67.0,-100.00,ESE,122,7.0,10.0,79,0.00,,,0.14,85.000000,,2013-07-14 00:53:00,
2013-07-13 20:02:00,74.0,67.0,-100.00,ESE,122,7.0,10.0,79,0.00,,,0.14,85.000000,,2013-07-14 01:02:00,
2013-07-13 20:11:00,74.0,67.0,-100.00,ESE,122,7.0,10.0,79,0.00,,,0.14,85.000000,,2013-07-14 01:11:00,
2013-07-13 20:20:00,74.0,64.0,-100.00,ESE,115,7.0,11.0,71,0.00,,,0.14,124.000000,,2013-07-14 01:20:00,
2013-07-13 20:43:00,74.0,64.0,-100.00,ESE,115,7.0,11.0,71,0.00,,,0.14,124.000000,,2013-07-14 01:43:00,
2013-07-13 20:52:00,74.0,64.0,-100.00,ESE,115,7.0,11.0,71,0.00,,,0.14,124.000000,,2013-07-14 01:52:00,
2013-07-13 21:02:00,74.0,64.0,-100.00,ESE,115,7.0,11.0,71,0.00,,,0.14,124.000000,,2013-07-14 02:02:00,
2013-07-13 21:11:00,74.0,64.0,-100.00,ESE,115,7.0,11.0,71,0.00,,,0.14,124.000000,,2013-07-14 02:11:00,
2013-07-13 21:20:00,71.0,64.0,-100.00,ESE,102,7.0,12.0,78,0.00,,,0.14,25.000000,,2013-07-14 02:20:00,
2013-07-13 21:43:00,71.0,64.0,-100.00,ESE,102,7.0,12.0,78,0.00,,,0.14,25.000000,,2013-07-14 02:43:00,
2013-07-13 21:53:00,71.0,64.0,-100.00,ESE,102,7.0,12.0,78,0.00,,,0.14,25.000000,,2013-07-14 02:53:00,
2013-07-13 22:01:00,71.0,64.0,-100.00,ESE,102,7.0,12.0,78,0.00,,,0.14,25.000000,,2013-07-14 03:01:00,
2013-07-13 22:11:00,71.0,64.0,-100.00,ESE,102,7.0,12.0,78,0.00,,,0.14,25.000000,,2013-07-14 03:11:00,
2013-07-13 22:20:00,69.0,64.0,-100.00,East,91,4.0,9.0,83,0.00,,,0.14,0.000000,,2013-07-14 03:20:00,
2013-07-13 22:53:00,69.0,64.0,-100.00,East,91,4.0,9.0,83,0.00,,,0.14,0.000000,,2013-07-14 03:53:00,
2013-07-13 23:02:00,69.0,64.0,-100.00,East,91,4.0,9.0,83,0.00,,,0.14,0.000000,,2013-07-14 04:02:00,
2013-07-13 23:11:00,69.0,64.0,-100.00,East,91,4.0,9.0,83,0.00,,,0.14,0.000000,,2013-07-14 04:11:00,
2013-07-13 23:20:00,69.0,57.0,-100.00,SE,138,4.0,8.0,66,0.00,,,0.14,0.000000,,2013-07-14 04:20:00,
2013-07-13 23:42:00,69.0,57.0,-100.00,SE,138,4.0,8.0,66,0.00,,,0.14,0.000000,,2013-07-14 04:42:00,
2013-07-13 23:54:00,69.0,57.0,-100.00,SE,138,4.0,8.0,66,0.00,,,0.14,0.000000,,2013-07-14 04:54:00,